Wind_Speed
59 59 60 60 60 61 61 61 62 63 63 64 65 65 65 65 67 69 69 68 67 66 66 67 69 70 71 72 73 73 73 70 68 65 66 70 69 63 60 60 61 63 64 66 67 68 69 70 71 73 74 75 75 75 74 72 71 70 70 70 70 71 71 71 69 68 66 63 62 60 60 59 59 58 56 54 53 51 50 50 49 49 50 49 50 50 49 47
62 61 61 61 61 62 62 63 63 64 64 65 66 66 66 66 66 67 69 70 69 67 66 66 67 69 70 71 72 73 74 73 70 68 71 73 66 61 61 60 60 61 61 62 63 64 65 65 67 69 71 72 74 75 74 73 71 71 71 71 72 72 72 71 70 69 67 64 62 61 61 60 59 58 56 55 53 51 50 50 50 50 50 50 50 50 48 46
65 65 64 64 63 63 64 64 65 65 66 66 67 67 67 67 67 66 68 70 70 69 67 66 66 67 69 71 71 72 72 73 72 73 76 72 64 63 64 62 62 62 60 59 59 60 61 62 63 65 67 68 70 71 72 72 72 72 72 72 73 74 72 71 71 70 67 65 63 62 62 61 59 58 57 55 53 52 51 50 51 50 50 50 50 50 49 47
67 68 68 67 66 66 65 66 66 66 67 68 68 69 69 68 68 67 67 68 70 70 69 68 67 67 68 70 70 70 71 71 71 75 78 72 68 67 66 65 65 63 61 59 57 57 57 59 61 62 63 64 65 66 68 69 71 72 73 74 75 74 73 72 72 70 68 66 64 63 63 62 60 59 57 56 54 53 52 51 51 51 51 50 50 49 49 47
68 69 70 70 70 69 68 68 68 68 68 69 70 70 70 70 69 68 67 67 69 70 71 70 68 67 67 68 69 70 70 68 69 74 76 74 72 71 70 68 66 64 62 59 58 57 56 57 58 60 61 62 62 63 64 66 67 69 71 74 75 74 73 72 72 70 68 67 65 64 64 63 61 60 58 56 55 54 53 52 52 52 51 50 50 49 49 49
69 70 71 72 72 72 71 70 70 70 70 71 71 72 72 71 71 70 69 68 68 69 71 71 70 68 67 67 68 69 68 67 67 71 73 74 74 74 73 71 68 66 62 60 60 58 57 56 56 57 58 59 59 61 61 62 63 64 67 70 73 73 72 72 72 70 69 68 66 65 64 63 62 60 58 57 55 55 53 53 53 52 51 51 50 50 51 50
70 71 72 73 74 74 74 74 73 72 72 73 73 73 73 73 73 72 71 69 68 69 70 71 71 70 68 66 66 67 67 66 67 68 70 72 74 75 75 73 71 68 65 63 62 61 59 58 57 56 56 56 57 58 59 58 59 61 63 66 68 69 69 71 71 70 69 69 67 65 64 63 62 61 59 58 57 56 54 54 53 53 51 51 52 52 51 51
71 72 73 74 75 76 77 77 76 75 75 75 75 75 75 75 75 74 72 71 70 69 70 71 71 71 70 67 66 65 66 68 68 68 69 70 72 74 75 74 72 70 67 66 65 63 61 60 59 57 55 54 54 54 54 55 58 59 61 62 63 63 65 67 68 69 69 68 67 65 64 63 62 61 60 59 58 57 56 55 54 53 52 52 52 52 51 50
73 74 75 76 77 78 79 80 79 78 78 77 77 76 76 76 76 76 74 73 72 70 70 71 71 72 70 68 65 63 66 71 70 68 68 68 69 71 72 73 73 71 69 68 67 64 63 62 62 59 56 53 52 51 50 52 55 57 58 58 58 57 59 60 62 64 66 66 66 65 64 63 62 62 61 60 59 58 57 56 55 53 52 52 52 52 51 50
77 78 78 79 80 80 81 82 81 81 80 79 79 78 78 78 78 77 76 75 74 72 71 70 71 72 70 68 65 63 68 71 69 68 67 67 67 67 68 70 72 72 71 70 68 66 66 66 64 61 57 54 52 50 49 50 52 52 54 54 54 54 54 55 57 59 61 62 63 63 63 62 62 61 60 59 59 58 57 56 54 52 51 51 52 52 52 52
80 81 82 82 83 82 83 83 83 83 82 81 81 80 80 79 79 79 78 77 75 75 73 71 71 71 70 69 65 65 70 70 68 69 68 67 66 65 65 66 68 70 71 70 70 69 69 68 65 61 58 55 54 51 50 51 50 49 50 51 51 52 52 53 55 56 57 58 59 61 61 61 61 61 61 59 58 57 56 55 53 51 50 50 51 53 54 55
83 84 84 85 85 85 85 85 85 85 84 83 83 82 82 81 80 80 80 79 77 76 75 72 71 71 70 68 66 69 72 69 67 68 68 68 66 64 63 64 65 67 69 70 71 71 71 69 66 63 60 57 56 53 52 52 50 49 48 48 48 49 50 52 53 54 54 55 55 57 58 59 60 60 60 59 58 57 55 54 51 48 46 45 48 53 55 57
85 86 87 87 86 86 86 86 86 86 85 84 84 84 83 83 82 81 82 81 79 78 76 74 71 71 69 67 71 73 71 68 66 67 69 69 67 65 63 62 63 64 66 68 70 71 70 69 66 64 61 59 57 54 53 54 52 49 47 45 45 46 48 51 52 53 53 52 52 53 55 57 58 59 59 58 57 55 53 52 50 46 42 41 46 51 52 53
87 88 88 88 87 86 85 85 86 86 86 85 85 84 84 84 83 83 83 83 81 79 78 76 73 71 68 69 74 73 70 69 67 68 70 71 69 66 63 62 62 63 64 66 67 68 69 68 67 65 62 60 59 56 56 56 53 50 47 45 43 43 47 49 51 52 53 52 51 52 53 52 53 53 53 52 51 51 50 50 48 45 43 45 49 53 53 50
88 88 89 88 88 86 84 83 84 85 85 86 85 85 85 85 84 84 85 84 83 80 78 77 75 71 69 73 75 72 71 71 68 68 69 70 70 68 65 64 63 63 64 64 64 65 65 66 65 65 63 62 60 58 57 56 53 50 48 45 43 43 45 48 50 51 52 52 52 51 48 47 46 44 43 41 42 44 45 45 45 44 45 47 49 53 55 53
87 88 89 88 87 84 82 81 81 82 84 85 85 85 85 86 86 85 86 86 84 82 79 78 76 72 71 75 75 72 73 72 70 68 67 69 70 69 68 66 65 65 64 63 62 62 62 61 62 64 64 63 61 59 59 57 55 52 49 47 45 44 45 47 49 51 53 52 50 48 45 43 41 38 34 31 33 36 37 38 38 39 43 45 47 50 51 55
85 86 87 87 85 81 79 78 78 79 81 83 84 84 85 87 87 86 87 87 85 83 80 78 76 73 72 75 75 73 72 72 70 66 66 68 69 70 69 68 67 65 65 63 61 60 60 59 60 61 62 62 60 60 59 57 54 51 49 48 47 47 46 47 49 50 52 51 48 45 43 42 40 37 32 29 31 32 30 28 28 32 38 41 44 48 51 58
83 84 84 84 82 80 78 76 76 77 78 81 82 82 84 86 87 87 88 88 86 84 81 78 77 74 73 76 76 73 72 72 70 67 67 68 68 69 69 69 69 67 66 63 60 59 58 58 58 58 58 58 58 58 56 54 53 52 51 51 50 50 48 48 48 50 51 49 46 43 41 40 39 36 33 34 36 31 23 19 20 26 32 38 42 46 54 62
80 81 81 81 80 79 76 73 73 76 77 79 80 80 83 85 86 88 89 88 86 83 81 79 77 76 75 76 76 75 73 72 70 67 67 67 68 68 69 70 70 69 67 63 60 58 57 57 56 54 52 53 55 56 55 55 56 55 55 54 53 52 51 49 49 50 51 47 43 41 38 37 36 34 32 34 37 34 25 19 21 25 32 38 38 42 53 60
76 76 77 77 76 74 72 68 69 73 75 77 80 79 80 82 85 87 89 87 85 84 82 80 78 77 76 76 76 75 73 71 70 68 67 68 67 68 69 69 70 70 68 64 61 58 57 54 51 49 49 52 55 57 57 58 58 56 55 55 53 53 52 51 49 50 49 45 40 38 36 34 33 32 31 32 35 37 35 32 32 33 36 37 34 41 51 54
70 70 70 70 69 68 65 62 64 70 72 75 79 77 76 79 83 86 87 87 86 85 82 80 79 77 77 76 76 75 73 70 70 69 68 68 68 67 67 67 68 68 67 66 64 61 57 52 48 49 51 54 56 58 59 59 58 56 55 54 53 53 53 52 50 49 48 43 39 37 35 32 32 32 32 33 36 41 41 40 42 41 38 35 33 42 49 49
63 63 63 61 61 60 58 57 60 66 69 71 75 75 74 77 79 83 86 87 86 85 82 81 79 78 79 78 76 75 73 71 70 70 69 69 68 66 65 65 65 65 66 67 65 62 57 51 49 51 52 54 56 58 60 61 59 56 55 54 53 54 54 53 51 49 47 43 40 37 33 32 32 33 33 34 37 41 43 44 43 40 39 39 38 41 44 46
57 56 55 54 54 54 52 52 56 62 66 67 70 74 73 72 75 81 86 88 87 86 83 81 80 81 82 80 76 74 73 72 70 70 70 69 67 65 64 63 63 64 64 65 64 63 58 53 52 53 53 54 55 57 60 61 59 57 55 53 54 55 55 54 52 49 47 43 40 37 34 33 33 33 33 35 37 39 43 44 43 41 40 42 41 39 41 47
51 50 49 48 49 49 47 49 54 58 62 62 67 72 69 69 75 81 86 88 88 86 84 83 82 83 84 81 77 74 73 73 70 69 69 68 66 65 63 62 63 63 62 62 63 63 60 57 56 55 55 54 54 56 58 59 58 56 54 53 54 55 56 55 52 48 46 43 41 39 36 33 32 33 34 35 36 37 40 43 45 43 37 34 35 37 45 54
46 44 44 44 45 45 44 48 52 54 57 59 64 67 64 69 76 80 85 87 87 86 85 84 83 85 86 81 76 73 73 73 69 68 69 68 66 64 63 62 62 61 61 61 61 62 62 60 59 58 57 55 54 54 56 57 56 55 54 53 55 56 56 55 51 47 45 44 42 40 36 33 33 34 34 36 36 36 39 42 45 43 36 30 31 37 49 58
40 39 39 40 40 41 41 45 49 51 53 56 59 62 63 71 76 79 83 86 86 87 86 84 85 88 86 80 76 74 73 73 71 69 69 68 66 64 63 62 60 60 60 61 61 61 61 61 61 60 59 57 55 54 55 56 57 55 54 55 57 58 57 55 50 48 47 45 44 40 36 34 34 34 35 37 36 36 39 39 37 38 37 32 30 39 53 58
35 33 33 34 35 36 38 41 45 47 48 50 54 59 64 71 76 78 83 86 88 88 87 86 88 90 85 79 78 75 72 74 72 69 68 69 67 65 63 61 59 59 60 60 59 58 60 61 62 61 60 58 55 53 54 56 57 56 56 58 60 60 58 55 52 50 49 47 44 40 36 35 35 36 37 37 36 36 38 38 34 36 41 37 33 41 53 55
30 28 29 29 29 30 33 37 40 40 41 45 51 58 65 71 75 78 82 87 89 89 88 89 91 89 84 80 78 75 73 75 72 69 69 69 67 65 63 61 59 60 60 59 56 56 58 59 61 62 61 58 55 54 55 57 58 57 59 61 63 62 60 57 55 53 52 49 44 41 38 37 37 37 38 37 36 35 37 41 42 43 48 49 46 47 51 50
26 25 24 24 24 25 28 32 34 34 36 42 49 57 66 71 75 78 81 87 90 89 89 91 91 88 83 80 77 75 75 74 72 71 71 69 67 65 63 61 61 61 60 59 57 57 58 58 61 63 62 60 57 57 58 59 59 60 62 64 65 64 61 59 56 54 53 48 43 41 40 39 38 38 38 37 38 38 39 45 49 47 48 51 53 53 53 52
23 22 21 21 20 22 25 28 29 30 34 40 47 57 65 70 74 78 81 86 89 88 89 90 89 86 82 80 77 76 75 73 73 72 71 68 66 65 64 63 63 62 60 59 58 58 59 60 62 63 62 61 62 62 61 61 61 63 66 67 67 65 62 60 56 55 53 46 42 43 42 40 40 39 39 39 40 41 43 47 50 50 47 47 52 56 56 54
21 20 19 18 18 20 22 25 28 31 34 39 47 57 65 70 74 77 81 85 87 86 87 88 88 85 81 79 78 77 74 72 72 71 69 66 64 63 63 63 62 61 59 59 57 57 59 61 61 61 62 63 64 64 64 63 63 65 68 68 68 66 63 61 58 57 52 44 43 45 44 42 41 40 40 41 41 42 44 46 49 52 51 50 53 55 54 50
19 17 16 16 16 18 21 24 27 31 35 40 48 57 64 69 73 76 79 84 86 86 86 87 86 84 81 80 79 77 74 72 71 71 68 65 61 60 59 59 59 57 55 55 55 55 57 59 60 61 62 63 64 64 64 64 63 66 69 68 68 66 64 61 58 55 48 43 45 48 46 43 41 41 42 42 42 43 44 46 47 50 52 53 53 52 50 46
15 14 13 12 13 16 19 23 27 31 35 42 49 57 64 69 72 75 78 82 85 84 85 86 85 83 81 80 79 77 74 72 71 71 69 65 61 60 59 59 58 56 54 53 53 53 55 57 59 60 61 61 62 62 62 61 61 65 67 66 66 65 62 59 56 52 47 45 49 50 47 43 41 42 43 43 43 44 45 46 46 47 49 52 52 51 48 45
12 11 9 9 11 15 19 23 28 33 38 43 49 57 64 68 71 73 76 81 82 81 83 84 83 82 80 79 78 76 72 70 70 70 68 64 61 58 58 58 57 55 55 56 55 54 54 54 54 56 58 58 59 60 60 60 62 65 67 66 66 63 60 59 56 52 49 48 50 50 46 41 41 42 43 43 43 44 46 47 47 48 49 50 49 46 43 41
10 8 7 7 10 14 19 24 30 35 39 43 49 57 63 66 68 71 75 78 78 79 81 82 82 81 79 79 78 74 71 69 68 68 66 62 58 56 56 56 56 54 54 55 56 55 54 52 52 54 56 57 57 58 59 61 64 66 68 66 63 62 62 61 58 54 52 51 52 51 44 40 41 43 43 44 44 44 46 47 48 48 48 48 45 40 37 38
9 6 5 7 10 14 17 22 27 33 39 44 49 56 61 64 67 70 73 74 76 78 80 81 81 80 79 79 76 72 70 68 67 66 64 60 58 57 57 56 55 54 54 54 55 55 54 52 53 54 56 57 57 58 59 61 62 65 65 61 59 63 65 62 59 56 55 54 53 51 45 42 43 44 45 46 46 46 46 46 48 48 47 47 45 43 43 46
8 5 4 6 10 13 16 21 26 32 38 44 50 55 60 64 66 67 68 70 73 77 79 79 79 79 78 77 74 70 68 66 65 65 62 59 57 56 56 56 55 54 55 56 57 56 55 54 54 55 57 58 59 60 61 62 62 62 60 58 61 66 66 62 60 59 57 55 53 50 45 44 45 46 46 46 46 47 47 48 49 49 49 48 48 50 53 55
7 3 1 4 8 12 16 20 25 31 38 43 49 55 60 62 62 62 64 67 71 74 76 77 77 77 76 74 72 70 67 65 63 62 60 58 55 54 54 54 54 54 56 58 58 58 58 57 57 57 58 60 61 62 62 61 60 60 60 62 65 66 63 60 60 59 56 54 51 49 46 45 45 46 46 47 48 49 51 51 51 51 52 52 52 54 56 59
6 3 2 3 6 11 15 20 25 31 37 42 48 53 56 57 58 60 63 66 69 71 73 74 75 74 73 71 70 68 66 64 62 61 58 56 54 54 53 53 53 54 55 57 58 59 59 59 59 58 59 61 61 60 59 58 59 60 61 62 63 63 61 60 60 57 56 54 51 50 48 46 46 47 48 50 51 52 53 53 53 53 54 55 56 56 57 59
6 4 4 5 6 10 14 18 23 29 35 40 46 49 51 53 55 58 61 63 66 67 69 71 72 72 71 69 68 66 65 63 62 60 57 55 54 53 52 52 53 53 55 57 59 60 60 60 60 59 59 59 56 54 55 57 59 60 59 59 60 60 59 60 60 58 56 54 52 52 49 47 49 51 52 53 54 54 54 54 54 55 56 56 57 57 57 58
7 6 6 7 9 12 15 18 22 28 33 38 44 48 49 51 54 57 59 61 62 64 67 68 69 69 69 67 66 64 63 62 61 60 57 55 54 51 51 52 52 53 54 55 58 60 60 60 60 59 58 56 54 55 58 59 59 59 59 59 60 60 60 61 59 56 55 54 53 53 51 51 53 54 54 55 55 55 56 56 56 56 57 57 56 56 56 57
11 7 6 7 9 12 16 20 24 29 34 39 43 47 49 51 54 56 57 58 60 62 64 65 66 67 67 66 64 63 62 61 60 58 57 55 53 51 51 51 52 53 53 54 56 59 60 60 59 58 58 58 58 58 59 59 59 60 60 60 61 61 60 59 57 56 56 55 53 52 52 53 55 55 56 56 56 56 56 57 57 57 57 56 55 55 55 55
16 11 8 6 7 10 13 17 23 28 34 39 42 45 48 51 53 54 55 56 58 60 61 63 64 64 63 63 63 62 61 60 58 57 56 55 53 52 51 52 53 53 53 53 55 58 60 60 59 58 59 60 59 59 60 60 59 58 57 58 59 59 58 58 57 58 58 56 54 53 52 53 54 55 56 56 57 57 57 57 57 57 57 56 55 55 55 56
19 15 12 10 7 7 10 14 21 27 33 37 40 43 47 49 51 52 53 54 55 56 58 59 61 61 61 61 61 61 60 59 57 56 55 54 53 52 52 52 53 53 52 53 54 56 59 60 60 60 59 59 59 59 60 58 55 54 54 55 56 57 58 58 58 58 57 55 54 54 54 53 54 55 55 55 56 56 57 57 58 57 57 56 56 56 56 57
22 20 16 14 12 10 11 16 21 26 30 34 38 42 45 47 47 47 48 49 50 52 53 55 57 58 59 59 59 59 59 58 57 55 55 54 53 52 51 52 52 53 53 54 55 56 58 60 61 60 59 58 58 57 56 54 53 53 53 53 55 56 57 57 58 57 54 53 53 53 53 53 55 55 56 56 57 57 58 58 58 58 57 57 57 57 57 58
24 24 20 17 14 14 15 19 22 26 30 35 38 40 42 43 43 43 44 45 47 50 52 53 54 56 57 58 58 58 57 57 57 57 56 54 52 49 49 49 51 52 54 54 54 55 57 60 61 60 59 59 58 57 56 55 54 53 53 53 54 55 55 56 57 54 53 53 54 53 52 53 55 57 57 58 59 59 59 59 58 58 57 57 58 58 58 58
23 25 24 20 17 17 20 24 27 29 32 35 37 37 38 38 39 41 42 44 46 48 50 51 53 54 55 56 57 57 56 56 57 58 57 54 50 47 46 47 49 51 53 53 52 53 55 57 59 60 60 59 58 57 56 56 54 53 53 53 53 54 54 54 53 52 53 54 53 52 52 54 56 58 59 60 60 60 60 59 59 59 59 59 59 59 58 58
24 25 25 23 21 21 24 27 30 33 35 35 36 37 38 38 38 39 40 42 43 45 48 51 53 54 55 55 55 55 55 56 57 56 54 51 48 46 45 45 47 49 51 51 51 51 52 55 57 59 59 59 59 58 57 57 56 54 54 54 54 54 54 53 52 52 53 53 51 52 53 54 56 59 60 60 60 60 60 60 59 59 59 59 58 58 58 58
25 28 28 27 25 24 25 27 30 33 36 37 37 38 38 38 38 38 39 40 42 44 47 49 51 53 54 54 55 54 55 55 55 52 50 48 46 45 45 45 46 47 49 49 50 49 51 54 56 57 58 59 59 59 58 58 57 56 56 56 56 55 55 54 54 54 53 52 51 52 53 53 55 57 58 58 59 59 58 58 58 58 58 59 59 58 57 57
24 30 32 32 30 28 27 28 29 32 34 36 37 36 36 37 37 38 38 39 41 44 47 49 50 51 52 53 54 55 54 53 51 50 48 47 45 44 44 44 45 47 48 49 49 49 50 52 54 56 58 59 59 59 59 59 59 58 58 57 57 57 56 56 55 55 54 53 52 53 52 52 53 56 57 58 58 58 57 57 58 59 59 60 60 58 57 56
21 27 32 36 37 35 33 31 31 31 32 34 35 36 36 36 36 36 37 39 41 43 45 48 49 51 52 53 53 53 52 51 49 48 47 46 45 44 44 44 45 46 48 50 50 50 51 52 53 55 57 58 58 59 59 60 60 59 59 58 58 57 57 56 56 55 54 54 54 53 52 53 54 57 58 58 58 58 58 59 60 60 61 60 60 58 57 56
19 23 29 34 38 39 40 39 38 36 34 34 34 35 36 36 35 35 36 37 39 41 43 44 47 49 51 52 51 50 49 49 48 47 46 45 45 44 44 44 44 46 48 50 51 52 52 53 54 55 56 57 58 58 59 60 61 60 59 59 59 58 58 57 57 56 56 56 55 54 54 55 57 58 59 59 58 58 58 59 60 61 61 60 58 58 57 57
Wind_Direction
269 268 268 267 266 265 263 262 261 260 258 257 254 253 252 252 250 248 247 247 247 246 245 244 243 242 242 242 241 241 242 242 242 242 242 242 241 242 242 242 243 243 243 243 243 243 243 242 242 242 242 242 242 242 242 242 242 242 243 243 244 244 245 246 247 247 248 248 249 249 251 252 253 254 255 256 256 256 257 258 258 259 259 260 262 263 265 267
268 267 267 266 266 265 263 262 261 260 258 257 255 253 251 251 250 248 246 245 245 245 245 244 243 242 242 241 241 240 241 241 241 241 241 242 242 243 242 242 242 242 242 243 243 243 243 242 242 242 242 242 242 242 241 241 241 241 242 242 243 243 244 245 246 247 247 247 248 248 249 250 252 253 254 254 255 256 256 257 257 258 258 259 261 262 264 265
268 267 266 266 265 264 263 262 260 259 258 257 255 253 251 250 249 248 246 244 244 243 243 243 243 242 241 241 240 240 240 240 240 240 241 242 242 242 242 241 241 241 241 242 242 242 242 242 242 242 241 241 241 241 241 241 241 241 241 242 242 243 244 245 246 246 247 247 247 248 248 249 250 251 252 253 254 255 255 255 256 257 258 259 260 261 263 264
268 268 267 266 265 264 263 262 260 259 257 256 255 253 251 249 248 247 246 245 243 242 242 242 242 242 241 240 240 240 239 239 239 239 241 241 241 241 241 241 241 241 241 241 241 241 241 241 241 241 241 241 241 241 241 241 240 240 241 241 242 242 243 244 245 246 246 247 247 247 248 249 249 250 251 253 253 254 254 255 256 256 257 257 259 261 262 263
269 268 268 267 265 264 263 261 260 258 257 256 254 253 251 249 247 246 246 245 243 241 240 240 240 241 240 240 239 239 239 238 238 239 240 240 240 240 240 240 240 241 241 241 241 241 240 240 240 240 240 240 240 240 240 240 240 240 241 241 242 242 243 244 245 246 246 246 246 246 247 248 249 250 251 252 252 253 253 254 254 255 255 257 258 259 260 261
269 268 267 267 265 264 263 261 259 257 256 255 254 252 250 248 247 245 244 244 243 241 240 239 239 239 239 239 238 238 238 238 238 239 239 239 239 238 239 239 240 241 241 241 241 241 240 240 240 239 239 239 239 239 239 240 240 240 241 241 242 242 243 244 244 245 245 245 245 246 247 247 248 249 249 250 251 252 252 253 253 254 255 257 258 259 260 262
270 269 268 267 265 264 262 260 258 257 255 254 253 251 249 248 246 244 243 242 242 241 240 239 238 238 238 238 238 237 237 237 237 238 238 237 237 237 238 238 239 240 239 240 240 240 240 240 239 239 239 238 239 239 239 240 240 240 241 241 242 242 243 243 244 245 245 245 245 245 246 247 247 247 248 248 249 251 251 252 252 254 256 257 259 260 262 264
271 269 268 266 265 263 262 260 258 256 255 253 252 250 249 247 245 243 242 241 241 240 239 239 238 237 237 237 237 236 236 235 235 236 237 237 236 237 237 237 238 238 238 239 239 240 240 240 240 240 239 238 239 239 240 240 240 240 240 241 242 242 243 243 244 244 244 244 244 245 245 246 246 247 247 247 249 250 250 251 252 254 256 258 260 262 263 265
271 269 268 266 264 262 261 259 257 256 254 252 251 250 248 245 244 242 240 239 239 239 238 238 237 236 235 235 236 235 235 234 233 235 237 237 236 237 236 236 237 237 237 238 238 239 240 240 240 240 239 239 240 240 240 240 240 240 241 242 242 242 243 243 244 244 244 244 244 244 244 245 246 246 246 247 248 248 249 251 253 255 258 260 261 263 264 265
272 270 268 266 263 261 259 258 256 254 253 251 250 249 247 244 242 240 239 238 237 237 237 237 236 236 235 234 234 234 235 234 232 233 235 236 236 236 236 236 236 236 236 236 237 237 237 238 239 240 240 240 240 240 240 241 241 241 242 242 241 241 241 242 243 243 243 243 242 243 243 243 244 245 245 246 247 248 250 251 254 257 259 261 263 265 267 267
271 269 267 265 263 261 259 257 255 253 251 250 249 247 246 244 241 239 237 236 235 235 236 235 235 235 234 233 232 233 234 233 231 231 232 234 235 234 234 234 235 235 235 235 235 235 235 237 239 240 240 240 240 240 240 241 242 241 241 241 240 239 240 241 242 242 242 241 241 241 241 242 242 243 244 244 246 248 250 251 253 256 258 262 267 268 268 267
271 268 266 264 262 261 259 256 254 252 250 248 247 246 244 243 240 237 236 234 233 233 234 234 234 234 233 232 231 232 233 233 231 231 231 232 233 233 233 233 233 233 233 233 233 233 234 235 237 238 239 239 240 240 241 242 242 242 241 241 240 239 239 240 242 242 241 241 240 240 240 239 240 241 242 243 245 246 249 251 252 254 258 264 267 268 267 265
271 269 267 265 262 260 258 256 254 252 250 247 245 244 243 241 238 236 234 233 231 231 232 232 232 232 231 231 231 231 232 232 231 230 230 230 231 230 230 231 232 232 232 232 232 233 233 234 235 236 237 238 239 240 241 242 241 241 241 241 240 239 239 240 241 241 241 240 239 239 239 239 239 240 242 244 246 247 249 251 253 253 255 255 256 259 262 262
271 269 267 265 263 261 258 256 254 252 249 247 244 242 241 239 237 234 233 231 230 229 229 230 231 231 229 230 230 230 231 231 230 229 229 229 229 228 228 229 230 231 231 232 232 232 233 233 234 235 236 237 238 238 240 241 242 242 242 241 240 238 238 240 241 241 241 239 238 238 239 240 241 243 245 246 248 249 250 251 253 253 251 249 249 252 255 258
271 270 268 266 264 262 260 257 254 251 249 246 244 241 239 237 235 233 231 230 228 227 227 228 229 229 228 229 230 229 229 230 228 228 229 229 229 228 227 228 229 230 231 232 232 233 233 233 233 234 234 235 236 237 239 241 242 242 242 242 240 239 239 239 241 241 241 239 237 237 238 240 241 243 245 248 251 252 253 253 253 253 252 251 251 253 256 260
271 270 269 267 266 263 261 258 254 251 248 246 243 240 237 235 234 231 229 228 227 226 225 226 227 227 227 229 229 228 228 229 228 228 229 229 229 228 226 226 228 229 230 231 231 232 233 233 233 233 233 234 235 236 237 240 241 241 241 241 240 239 238 238 240 241 241 239 238 237 237 238 238 238 238 244 252 254 254 254 253 253 252 251 250 251 254 258
271 270 269 269 268 265 262 258 254 250 247 245 242 239 236 233 231 229 228 227 225 224 223 223 225 226 227 228 228 227 227 228 228 227 228 229 229 229 227 226 227 229 230 230 231 232 233 233 233 233 233 234 234 235 237 239 240 240 240 240 239 238 236 236 238 240 241 239 238 236 235 235 235 232 226 224 234 244 252 256 254 251 252 251 248 247 247 248
272 271 270 269 268 266 262 258 254 250 246 244 241 238 235 232 229 228 226 225 224 223 222 222 223 224 226 227 227 226 226 227 226 225 226 228 228 229 228 227 227 228 230 230 231 232 232 232 233 233 233 233 233 235 236 238 238 237 238 237 236 235 234 234 236 238 240 239 237 236 235 235 234 231 222 213 217 225 236 247 246 247 252 251 247 245 244 244
273 272 271 269 268 266 263 258 253 250 245 242 241 237 233 230 228 226 225 224 222 221 221 220 221 222 224 226 226 225 225 225 225 224 225 227 227 228 227 227 227 228 229 229 230 232 232 233 233 234 235 234 233 232 232 233 234 234 235 235 234 234 233 233 234 237 239 239 237 236 234 234 235 231 223 214 212 209 204 207 221 233 241 243 242 243 246 247
274 272 270 269 267 266 264 259 252 248 244 240 239 236 232 229 226 224 224 222 220 220 219 219 219 220 223 225 225 224 224 225 225 224 224 226 226 227 227 227 227 227 228 228 229 230 231 232 233 234 233 231 229 227 228 231 232 233 234 235 235 236 235 234 234 236 239 239 238 236 232 231 231 229 222 214 211 207 196 192 205 218 229 235 238 244 250 253
275 272 270 268 267 265 262 256 249 245 242 238 236 235 231 228 225 223 222 221 219 218 217 217 218 219 221 224 224 223 223 224 224 223 223 225 225 226 227 227 228 228 228 227 227 228 229 230 232 232 231 230 228 226 226 229 231 232 234 235 236 236 236 235 234 236 239 239 237 234 231 228 226 225 220 213 210 208 201 197 203 212 220 225 233 244 251 255
275 272 271 269 266 263 260 254 246 242 240 235 234 233 229 226 223 221 221 219 217 217 216 216 217 218 220 222 222 222 221 222 223 222 222 224 224 225 226 226 227 228 228 227 227 227 228 228 229 231 231 231 229 227 226 227 229 230 232 234 235 236 236 235 234 235 237 237 235 233 229 225 224 221 217 213 211 208 207 206 208 213 215 216 228 244 250 253
276 274 272 268 264 261 257 250 244 239 237 233 230 230 227 223 221 219 219 218 216 215 214 214 216 217 219 220 221 220 219 220 221 222 222 223 223 224 225 225 225 226 227 227 227 226 225 225 227 229 230 230 229 227 226 227 229 229 231 233 234 235 235 235 234 234 235 235 233 231 227 223 222 221 217 213 212 208 208 210 212 216 215 217 232 249 256 258
278 275 272 268 263 260 254 247 242 238 235 230 226 227 224 220 218 217 217 216 215 213 212 212 214 217 218 218 219 219 218 219 220 221 222 222 222 222 224 224 224 224 225 225 225 224 222 222 224 226 227 228 227 227 226 227 228 229 230 232 234 235 235 234 233 232 232 232 231 229 225 222 220 221 218 214 213 209 208 210 211 214 214 220 237 252 260 262
278 275 271 266 262 258 252 245 241 238 234 229 224 223 220 216 216 215 215 215 214 212 211 211 213 216 217 217 218 218 218 218 218 220 221 222 221 221 222 223 224 224 223 223 223 222 221 221 222 223 224 225 225 225 225 225 227 228 229 231 233 235 235 234 232 230 230 229 228 227 223 220 219 219 218 215 212 207 208 212 212 213 212 217 234 248 256 261
279 275 269 264 259 255 249 243 240 236 232 227 222 219 215 213 214 213 212 213 213 211 210 210 212 216 216 215 216 217 217 216 216 218 220 220 220 220 221 222 223 223 223 222 221 220 219 220 222 223 223 223 222 223 223 224 225 226 228 230 232 234 234 233 230 228 228 226 226 225 221 218 217 218 218 216 212 205 205 209 212 216 214 215 234 248 254 259
281 275 268 262 257 251 245 241 238 235 231 226 220 215 211 211 212 211 210 211 211 210 208 209 212 215 214 213 215 215 215 215 215 216 219 219 219 219 220 221 222 222 222 222 221 220 219 219 221 222 223 223 223 223 223 222 223 225 226 229 231 232 233 232 229 226 225 224 224 223 219 217 215 215 216 216 213 206 202 203 205 208 208 210 226 241 250 255
284 276 269 262 255 248 241 238 237 234 229 223 217 211 208 208 209 209 208 208 210 209 207 208 211 213 212 212 214 214 215 215 213 214 218 219 218 218 218 219 220 221 222 221 219 219 219 219 221 222 222 222 222 223 223 222 222 223 226 228 230 231 231 231 229 226 225 223 222 221 218 215 213 213 214 214 212 207 202 206 209 205 204 210 220 230 242 252
287 279 271 264 254 245 238 234 233 230 225 220 213 207 205 206 207 207 206 206 209 209 207 208 211 212 211 211 213 214 214 214 212 213 216 217 217 217 217 218 219 220 220 219 217 216 216 218 220 221 221 220 220 221 222 221 220 221 225 228 229 230 230 230 229 228 227 224 221 220 217 214 212 212 212 211 212 208 203 210 214 210 208 215 224 232 244 254
292 283 275 265 254 241 233 229 225 219 216 214 209 205 204 204 205 205 204 205 208 208 207 208 210 210 210 210 212 213 214 213 213 214 216 217 217 216 216 217 218 218 218 218 217 216 216 216 219 221 221 220 220 220 220 220 219 221 225 227 228 230 230 230 230 229 228 224 221 220 217 213 211 211 210 209 210 209 206 210 214 213 212 216 227 238 249 256
295 285 275 264 250 237 227 222 216 210 206 205 204 203 202 203 203 203 202 204 207 208 207 208 209 209 209 210 211 212 213 213 212 213 216 218 218 218 218 218 219 219 218 217 217 217 218 217 218 221 222 222 223 222 222 221 220 222 225 227 228 229 230 230 230 231 230 224 222 222 217 213 210 210 210 210 211 211 211 212 212 214 216 221 231 241 248 255
294 283 271 260 246 232 222 215 210 205 200 198 200 200 201 201 202 201 201 203 205 206 207 207 209 209 208 210 211 212 211 211 211 212 214 216 217 218 219 220 220 220 220 220 219 219 220 220 219 221 223 223 225 226 226 225 224 225 227 228 229 230 231 232 232 233 231 225 225 225 219 214 211 211 211 211 213 214 216 217 215 216 220 227 235 241 245 252
295 282 270 259 243 228 217 209 203 199 196 196 196 198 199 199 200 200 200 201 204 205 205 206 208 208 208 210 211 211 211 211 210 211 212 214 215 216 217 218 219 218 217 218 220 221 223 222 222 223 225 226 228 229 230 230 230 230 230 231 232 232 233 235 235 235 232 228 228 227 221 215 211 213 214 213 216 218 219 219 220 221 225 229 234 238 243 251
302 288 274 257 238 222 211 203 197 194 193 193 194 195 197 198 199 198 198 200 203 204 204 205 207 207 208 209 211 211 211 211 211 211 212 212 214 215 216 216 218 217 216 215 216 218 221 223 224 226 228 228 230 231 231 231 229 228 229 230 231 233 234 234 234 233 232 230 230 229 224 217 214 216 217 216 219 224 223 221 223 225 228 231 233 238 244 249
314 297 275 245 225 215 208 203 198 193 190 191 192 193 196 198 197 197 197 199 200 202 203 204 206 207 207 209 210 210 209 210 211 211 212 212 213 215 215 216 217 216 216 217 217 217 218 219 220 223 226 228 229 230 231 231 231 230 230 231 232 234 234 232 231 230 228 227 229 230 224 218 217 219 220 219 222 227 227 225 227 230 232 234 234 237 242 244
328 309 272 231 214 208 206 204 200 194 188 188 190 192 194 196 196 196 196 197 198 200 202 203 205 206 207 208 209 209 209 209 209 209 210 212 213 214 214 214 215 215 215 216 217 219 219 218 219 220 222 225 226 228 230 231 232 233 235 236 236 235 233 231 230 230 229 228 229 230 225 219 220 221 222 223 223 228 231 229 230 233 235 237 235 232 234 239
342 322 266 220 206 199 198 199 197 193 188 187 189 190 193 195 195 195 194 194 196 199 201 202 204 205 206 207 208 208 209 209 209 209 209 210 213 214 214 213 213 213 213 214 214 217 219 219 220 220 221 223 224 226 227 229 230 232 234 234 234 234 233 232 231 230 230 230 231 232 228 222 223 224 225 226 227 229 232 233 233 233 234 235 235 233 233 239
356 350 268 213 201 193 191 192 192 191 189 188 188 189 192 194 194 193 192 193 195 198 200 201 202 204 206 206 206 206 207 207 208 208 209 210 212 214 214 215 215 214 214 213 213 215 216 218 220 220 221 223 224 225 226 228 229 230 231 230 230 232 233 233 233 232 232 232 232 232 230 226 226 227 228 229 230 230 232 233 234 235 234 234 236 237 237 242
9 42 100 175 191 189 188 188 189 189 189 188 188 189 191 192 191 190 190 192 194 197 199 200 201 203 205 205 205 206 206 205 205 206 207 209 212 213 213 214 215 216 216 215 214 215 216 217 219 220 222 224 224 226 228 229 229 230 231 231 232 233 233 233 233 232 232 232 231 232 231 228 229 230 231 231 232 232 233 234 235 236 237 238 239 241 243 246
24 65 102 133 165 178 184 187 188 188 188 187 186 188 189 188 188 188 188 191 193 195 197 199 200 201 203 204 205 205 205 204 204 203 205 207 211 214 214 214 215 216 217 216 215 215 216 218 219 220 223 225 226 228 229 230 230 231 232 233 234 236 236 235 234 233 232 231 231 231 230 229 230 231 232 233 234 235 236 236 237 239 240 241 242 244 247 250
31 70 103 132 153 166 173 180 184 184 184 184 183 184 186 185 185 186 187 189 192 194 196 197 199 200 201 202 203 204 205 204 203 203 203 206 209 212 214 214 215 216 217 217 217 216 217 219 220 221 223 225 227 228 228 229 230 231 231 232 233 234 234 235 236 236 236 235 233 233 231 230 231 232 233 234 235 237 238 239 240 242 243 244 246 248 250 251
30 54 88 124 149 162 169 174 178 179 180 181 181 181 182 183 183 185 186 188 190 193 194 195 197 198 199 199 200 202 203 203 203 203 204 206 208 210 212 214 215 216 217 218 218 217 218 219 221 222 223 224 225 226 228 229 228 229 229 230 231 233 234 235 235 235 235 235 235 235 234 234 235 235 235 237 238 239 240 242 243 244 245 246 247 248 249 250
36 40 62 89 129 155 166 170 172 174 176 178 179 178 179 180 182 184 185 187 189 191 192 193 195 197 198 198 198 200 202 202 203 204 205 207 209 210 211 212 214 215 216 218 219 218 219 220 221 222 223 225 225 226 228 228 229 229 231 232 234 235 236 236 235 234 233 232 232 233 234 235 236 237 238 239 240 241 242 243 244 245 246 246 247 248 248 250
54 47 57 70 88 121 145 158 165 169 172 175 175 175 177 180 181 182 184 185 188 190 191 192 193 194 196 197 197 199 200 200 202 203 206 208 210 211 211 212 213 214 216 218 219 219 220 221 221 222 224 226 227 228 230 231 231 232 234 235 236 237 237 238 237 237 236 235 233 233 233 233 235 237 238 239 240 241 242 243 244 245 246 247 248 248 249 251
80 69 63 69 81 103 128 147 158 164 167 170 171 173 176 178 180 181 182 184 186 188 190 191 192 192 194 195 197 199 199 200 201 203 206 209 211 212 212 213 214 214 215 217 217 218 219 221 222 223 224 226 228 229 232 233 234 234 235 236 237 237 238 239 240 240 240 240 239 238 237 236 237 238 239 240 240 241 242 244 245 247 248 249 250 251 252 254
94 91 84 81 89 108 127 142 152 159 162 165 169 173 175 176 176 177 179 182 184 186 188 190 191 191 192 194 196 198 199 201 202 203 205 208 211 213 214 215 215 215 216 217 218 218 219 221 222 222 223 225 226 228 230 231 231 232 234 235 237 238 239 240 241 242 242 242 241 241 240 240 240 241 241 242 243 244 245 246 248 249 250 251 253 254 255 255
94 97 98 98 104 118 132 143 152 157 160 164 168 171 172 172 173 175 178 181 183 185 187 188 189 190 192 194 195 197 199 202 204 205 207 208 209 212 214 216 217 218 218 219 219 220 221 222 223 223 224 225 226 227 229 230 230 231 232 234 235 236 238 239 241 242 242 242 242 242 242 242 242 243 243 244 245 246 247 249 250 251 252 253 255 255 256 255
98 97 98 103 111 124 136 145 152 156 159 163 166 167 169 170 172 174 177 180 183 185 186 187 188 189 191 193 195 198 201 204 206 208 210 211 211 212 213 215 218 219 220 220 221 222 223 225 225 225 226 227 227 228 229 230 230 231 232 234 235 236 237 238 238 239 240 241 241 241 241 241 242 244 245 246 247 248 249 250 251 252 253 254 255 255 255 255
106 104 102 104 110 121 134 142 149 153 158 162 165 167 169 170 172 175 177 180 182 184 186 187 188 189 190 192 195 199 203 205 208 209 211 213 214 215 214 215 217 219 220 221 222 223 224 226 227 226 227 228 229 230 231 231 232 233 234 235 237 238 239 239 239 239 239 239 240 240 240 241 243 245 246 248 249 250 251 252 253 253 253 254 254 254 254 254
107 111 112 112 114 121 131 141 148 153 158 162 166 168 169 171 173 175 177 179 182 184 186 187 188 189 191 193 197 200 204 206 208 210 212 213 215 217 217 217 218 218 219 220 221 223 225 227 228 228 228 229 230 231 232 233 234 234 235 237 239 240 241 241 241 241 241 241 241 241 241 242 243 245 247 247 249 250 251 252 252 253 253 253 253 254 255 255
104 113 118 120 123 129 136 143 151 156 161 164 166 169 171 173 175 176 178 180 182 185 186 187 188 189 192 196 199 202 205 207 209 211 213 215 216 218 219 220 220 219 219 219 219 221 224 226 228 229 229 229 230 231 233 234 235 235 236 238 239 241 242 243 244 244 244 243 243 243 243 243 244 245 246 246 247 248 249 250 251 252 252 253 253 254 255 255
103 115 122 126 131 137 144 149 155 160 164 168 170 172 173 175 176 178 179 181 183 185 187 188 190 192 195 198 201 204 206 208 210 212 214 216 218 219 220 222 223 222 222 221 220 220 222 225 226 228 229 230 230 231 233 234 235 236 237 239 240 242 243 244 245 246 245 245 245 245 245 245 245 246 247 248 248 249 249 250 251 252 253 253 254 255 255 256
Height
10594 10593 10592 10591 10591 10590 10590 10590 10590 10590 10591 10592 10593 10594 10595 10597 10599 10601 10604 10607 10610 10612 10615 10618 10621 10625 10628 10631 10635 10638 10642 10647 10650 10656 10656 10647 10651 10664 10671 10673 10674 10675 10678 10681 10685 10688 10693 10698 10701 10704 10706 10710 10713 10716 10721 10726 10732 10735 10735 10736 10735 10737 10738 10742 10747 10751 10756 10762 10766 10768 10768 10770 10771 10773 10777 10781 10784 10786 10788 10789 10789 10789 10788 10787 10787 10789 10793 10796
10585 10584 10583 10583 10582 10582 10581 10581 10581 10581 10582 10582 10583 10584 10586 10588 10590 10593 10596 10599 10602 10605 10608 10611 10613 10617 10620 10622 10626 10630 10634 10639 10645 10649 10642 10639 10654 10664 10664 10666 10668 10669 10672 10676 10679 10683 10688 10692 10695 10697 10699 10702 10705 10710 10715 10720 10725 10726 10727 10728 10728 10730 10733 10737 10742 10745 10751 10757 10761 10763 10764 10766 10768 10770 10773 10776 10780 10783 10785 10785 10785 10785 10784 10784 10784 10786 10790 10792
10575 10575 10574 10574 10573 10572 10572 10572 10572 10572 10572 10573 10573 10575 10577 10579 10581 10584 10587 10590 10593 10596 10600 10603 10605 10608 10611 10614 10618 10622 10627 10632 10639 10638 10630 10639 10654 10655 10656 10660 10660 10662 10666 10670 10675 10679 10682 10685 10687 10690 10692 10695 10699 10704 10708 10713 10717 10717 10719 10721 10720 10723 10729 10734 10736 10740 10747 10752 10756 10758 10759 10762 10764 10766 10769 10772 10776 10779 10781 10781 10781 10781 10781 10781 10782 10783 10786 10788
10565 10564 10563 10563 10563 10562 10562 10562 10562 10562 10562 10563 10563 10565 10567 10569 10572 10575 10578 10581 10585 10588 10592 10594 10597 10600 10603 10607 10611 10615 10619 10625 10630 10627 10626 10638 10646 10645 10648 10651 10653 10656 10661 10665 10670 10673 10676 10678 10681 10683 10686 10689 10693 10698 10702 10705 10708 10710 10713 10712 10714 10720 10725 10728 10731 10735 10742 10746 10751 10753 10754 10757 10760 10762 10765 10769 10772 10775 10777 10777 10778 10778 10778 10778 10779 10781 10782 10784
10555 10553 10552 10552 10552 10551 10551 10552 10552 10552 10553 10553 10553 10555 10557 10560 10563 10565 10569 10572 10576 10579 10583 10586 10589 10592 10595 10599 10604 10608 10612 10618 10622 10618 10622 10632 10636 10638 10640 10643 10647 10651 10656 10661 10664 10667 10670 10672 10674 10677 10680 10683 10688 10691 10694 10697 10701 10704 10706 10706 10710 10716 10720 10723 10726 10731 10736 10740 10745 10748 10750 10752 10755 10758 10762 10765 10767 10770 10772 10774 10774 10774 10775 10776 10778 10779 10778 10780
10543 10542 10540 10539 10539 10539 10540 10540 10541 10541 10542 10542 10543 10545 10547 10550 10553 10556 10560 10563 10567 10570 10574 10578 10581 10584 10587 10592 10597 10601 10606 10612 10613 10611 10616 10623 10628 10630 10632 10637 10642 10646 10652 10656 10658 10661 10663 10666 10668 10670 10674 10678 10682 10684 10688 10692 10697 10698 10700 10702 10706 10711 10715 10718 10721 10725 10729 10733 10739 10743 10744 10747 10751 10755 10758 10760 10762 10765 10768 10770 10770 10770 10773 10774 10775 10775 10775 10777
10530 10529 10528 10527 10526 10526 10527 10528 10528 10530 10530 10531 10532 10534 10537 10540 10543 10547 10550 10554 10558 10561 10565 10569 10572 10576 10580 10585 10590 10594 10601 10604 10604 10604 10608 10614 10619 10621 10624 10631 10636 10640 10646 10649 10651 10654 10657 10659 10661 10664 10668 10673 10676 10679 10684 10689 10691 10692 10694 10697 10701 10707 10711 10712 10715 10720 10723 10727 10733 10737 10739 10742 10746 10750 10753 10755 10758 10761 10764 10765 10766 10768 10771 10772 10771 10772 10773 10774
10517 10515 10514 10513 10512 10513 10513 10514 10515 10517 10518 10519 10520 10523 10526 10529 10533 10537 10540 10545 10548 10552 10556 10559 10564 10568 10572 10578 10582 10589 10595 10593 10594 10596 10600 10607 10611 10613 10619 10625 10629 10634 10640 10642 10644 10648 10651 10654 10656 10659 10663 10669 10672 10675 10681 10684 10684 10686 10689 10692 10698 10704 10706 10707 10710 10713 10716 10721 10727 10731 10733 10737 10741 10744 10748 10750 10754 10757 10759 10761 10763 10766 10769 10769 10768 10769 10771 10772
10502 10500 10499 10498 10498 10498 10499 10499 10501 10503 10504 10506 10508 10511 10514 10518 10522 10526 10531 10535 10539 10543 10547 10551 10556 10559 10565 10572 10576 10584 10584 10580 10586 10591 10594 10600 10604 10607 10614 10619 10623 10628 10633 10635 10639 10644 10647 10647 10649 10653 10659 10665 10668 10672 10677 10678 10678 10681 10685 10690 10696 10700 10701 10703 10704 10706 10709 10715 10720 10724 10727 10731 10735 10738 10742 10746 10749 10753 10755 10758 10761 10765 10768 10767 10766 10767 10768 10769
10486 10484 10483 10482 10482 10483 10483 10484 10486 10488 10490 10493 10495 10498 10502 10506 10511 10516 10520 10524 10529 10533 10537 10542 10547 10551 10559 10564 10571 10577 10571 10571 10582 10586 10588 10593 10597 10602 10608 10612 10616 10621 10626 10629 10634 10637 10637 10638 10643 10649 10656 10662 10664 10668 10672 10671 10674 10678 10682 10687 10691 10694 10696 10697 10696 10699 10703 10708 10713 10717 10721 10726 10729 10733 10737 10741 10745 10748 10752 10757 10761 10765 10767 10765 10764 10765 10765 10765
10468 10467 10466 10465 10465 10466 10466 10468 10470 10472 10476 10479 10481 10485 10489 10493 10499 10505 10510 10514 10519 10523 10528 10533 10538 10544 10550 10557 10566 10565 10558 10565 10576 10579 10583 10586 10590 10596 10601 10605 10609 10613 10618 10622 10625 10627 10629 10633 10639 10646 10652 10656 10659 10663 10666 10666 10670 10674 10677 10681 10685 10689 10691 10690 10690 10693 10696 10701 10706 10710 10715 10719 10723 10727 10731 10737 10741 10745 10750 10755 10760 10763 10765 10764 10762 10761 10760 10759
10450 10448 10447 10447 10447 10448 10449 10451 10453 10456 10460 10464 10467 10471 10475 10480 10487 10493 10498 10503 10508 10513 10519 10524 10530 10536 10542 10552 10557 10550 10549 10561 10570 10573 10578 10579 10583 10590 10594 10598 10601 10605 10610 10613 10616 10619 10623 10629 10635 10641 10647 10651 10654 10659 10661 10662 10666 10669 10673 10677 10681 10685 10686 10685 10685 10687 10690 10696 10701 10705 10708 10713 10717 10722 10727 10733 10738 10743 10747 10752 10757 10762 10765 10765 10760 10754 10752 10751
10431 10429 10428 10428 10428 10430 10432 10433 10436 10439 10444 10448 10451 10456 10461 10466 10474 10481 10487 10492 10498 10504 10509 10515 10522 10526 10536 10545 10541 10538 10547 10557 10563 10567 10569 10571 10577 10583 10588 10592 10594 10599 10602 10605 10608 10612 10618 10625 10631 10636 10642 10646 10650 10655 10656 10657 10661 10665 10669 10673 10677 10680 10681 10679 10680 10682 10685 10691 10696 10699 10701 10707 10713 10719 10725 10731 10736 10742 10746 10750 10755 10760 10764 10762 10754 10747 10745 10745
10412 10410 10409 10408 10409 10412 10414 10416 10419 10422 10426 10431 10436 10442 10447 10452 10460 10468 10474 10480 10487 10493 10499 10506 10512 10518 10531 10533 10526 10535 10544 10548 10554 10558 10559 10564 10569 10576 10582 10585 10588 10592 10595 10597 10602 10608 10614 10620 10626 10632 10638 10642 10646 10650 10650 10652 10657 10661 10665 10669 10673 10675 10675 10674 10675 10676 10679 10685 10690 10693 10698 10706 10712 10719 10726 10732 10737 10741 10745 10749 10753 10756 10757 10754 10748 10742 10740 10741
10392 10390 10389 10389 10391 10393 10396 10399 10402 10406 10409 10413 10420 10428 10433 10438 10447 10455 10462 10469 10476 10483 10490 10497 10503 10512 10522 10518 10519 10532 10536 10538 10544 10548 10553 10559 10563 10569 10576 10579 10582 10585 10588 10592 10599 10605 10610 10617 10623 10628 10633 10635 10640 10645 10646 10648 10653 10658 10661 10664 10668 10670 10670 10670 10671 10671 10673 10678 10684 10691 10698 10705 10712 10719 10726 10732 10737 10739 10743 10746 10750 10752 10751 10748 10745 10740 10739 10739
10373 10371 10370 10370 10371 10375 10379 10382 10385 10390 10393 10397 10405 10413 10419 10424 10432 10442 10450 10456 10465 10474 10481 10489 10495 10505 10510 10507 10513 10524 10527 10530 10536 10543 10550 10553 10557 10563 10569 10573 10576 10579 10582 10588 10595 10601 10607 10613 10618 10622 10626 10631 10637 10640 10641 10644 10649 10653 10656 10659 10662 10664 10665 10666 10666 10666 10667 10673 10681 10689 10697 10703 10709 10717 10726 10735 10737 10737 10739 10742 10746 10748 10745 10743 10742 10739 10738 10734
10356 10353 10352 10352 10353 10357 10361 10365 10369 10373 10377 10381 10389 10397 10404 10410 10419 10429 10437 10444 10455 10464 10472 10480 10487 10496 10499 10499 10506 10516 10520 10524 10531 10540 10544 10546 10551 10557 10563 10568 10571 10574 10578 10584 10592 10597 10603 10609 10613 10617 10622 10628 10633 10635 10638 10641 10645 10649 10651 10654 10656 10656 10659 10660 10660 10661 10662 10669 10679 10687 10695 10701 10706 10714 10724 10732 10732 10732 10736 10740 10743 10743 10739 10737 10735 10733 10733 10727
10340 10337 10336 10336 10337 10339 10344 10349 10354 10357 10362 10366 10372 10381 10389 10396 10405 10416 10424 10433 10444 10454 10464 10473 10480 10487 10490 10491 10498 10507 10512 10517 10524 10532 10535 10538 10544 10550 10557 10562 10565 10569 10573 10581 10589 10594 10600 10605 10608 10613 10618 10625 10630 10634 10637 10638 10639 10642 10644 10646 10647 10648 10652 10655 10656 10657 10658 10667 10677 10685 10693 10697 10702 10710 10719 10724 10725 10728 10735 10740 10742 10740 10734 10729 10727 10726 10724 10719
10324 10322 10321 10321 10321 10323 10327 10333 10338 10342 10346 10351 10357 10366 10374 10382 10393 10404 10412 10422 10436 10447 10456 10464 10471 10477 10480 10482 10490 10498 10504 10509 10516 10524 10528 10531 10537 10543 10549 10554 10559 10563 10569 10578 10585 10590 10596 10600 10605 10612 10619 10624 10627 10629 10630 10628 10629 10633 10635 10637 10639 10642 10647 10650 10652 10653 10656 10665 10675 10683 10690 10695 10699 10706 10712 10717 10720 10724 10729 10733 10737 10735 10724 10717 10719 10720 10716 10714
10309 10307 10306 10306 10306 10309 10312 10318 10323 10326 10331 10337 10342 10350 10360 10371 10383 10392 10402 10415 10428 10437 10446 10455 10462 10468 10472 10475 10482 10490 10497 10504 10510 10517 10521 10524 10530 10536 10541 10547 10553 10557 10565 10574 10580 10585 10590 10597 10605 10611 10614 10615 10617 10620 10620 10619 10622 10627 10630 10632 10636 10638 10642 10646 10649 10651 10655 10664 10673 10680 10686 10691 10696 10701 10706 10712 10714 10717 10720 10722 10725 10724 10716 10715 10720 10719 10713 10713
10295 10293 10292 10292 10293 10295 10298 10303 10308 10310 10316 10323 10327 10336 10350 10361 10372 10382 10394 10408 10418 10427 10438 10447 10454 10461 10464 10467 10474 10482 10491 10499 10504 10509 10514 10518 10524 10529 10535 10542 10548 10554 10561 10567 10573 10579 10586 10595 10602 10604 10605 10606 10608 10612 10613 10613 10617 10622 10625 10628 10631 10634 10636 10641 10647 10649 10653 10662 10669 10676 10682 10687 10691 10695 10700 10705 10707 10709 10712 10713 10714 10713 10715 10719 10720 10715 10712 10712
10281 10279 10278 10280 10280 10282 10285 10289 10293 10296 10301 10308 10316 10326 10338 10349 10362 10376 10387 10398 10408 10418 10430 10438 10446 10452 10454 10457 10465 10474 10484 10491 10495 10502 10508 10511 10518 10525 10530 10537 10544 10550 10554 10560 10567 10575 10584 10593 10596 10596 10597 10599 10603 10606 10607 10608 10612 10617 10620 10623 10626 10628 10630 10636 10643 10647 10651 10658 10665 10671 10678 10683 10686 10689 10694 10698 10700 10703 10706 10708 10709 10710 10714 10717 10715 10712 10711 10710
10268 10267 10267 10268 10268 10270 10273 10276 10280 10284 10288 10297 10307 10314 10326 10342 10358 10368 10376 10386 10397 10408 10420 10429 10436 10440 10443 10449 10457 10467 10477 10483 10488 10496 10500 10505 10513 10519 10525 10531 10537 10542 10548 10556 10564 10571 10580 10587 10587 10588 10590 10593 10597 10600 10602 10604 10608 10613 10616 10618 10620 10621 10624 10630 10638 10644 10649 10655 10660 10666 10673 10678 10681 10684 10688 10692 10694 10698 10701 10704 10706 10708 10712 10716 10716 10713 10709 10707
10258 10257 10257 10257 10258 10260 10263 10266 10268 10272 10277 10287 10296 10303 10319 10338 10349 10355 10364 10375 10386 10398 10410 10419 10425 10429 10433 10441 10451 10462 10469 10476 10484 10490 10495 10501 10507 10513 10519 10525 10530 10535 10543 10550 10557 10564 10572 10577 10578 10580 10583 10587 10591 10595 10598 10602 10606 10610 10612 10613 10614 10614 10617 10624 10634 10641 10645 10651 10656 10661 10669 10674 10677 10680 10683 10686 10689 10694 10697 10699 10701 10705 10712 10718 10719 10714 10706 10699
10249 10249 10248 10248 10249 10251 10254 10256 10259 10264 10269 10277 10286 10296 10315 10329 10335 10344 10355 10366 10378 10391 10401 10410 10418 10418 10422 10436 10448 10456 10463 10471 10480 10485 10489 10496 10502 10508 10514 10519 10525 10531 10538 10543 10550 10557 10564 10569 10570 10573 10576 10580 10585 10590 10594 10598 10602 10605 10607 10608 10607 10607 10611 10619 10630 10637 10641 10647 10651 10657 10665 10670 10673 10675 10677 10681 10684 10688 10690 10692 10697 10703 10710 10713 10713 10710 10699 10690
10241 10241 10240 10240 10241 10243 10245 10247 10251 10256 10261 10269 10280 10292 10307 10316 10324 10335 10347 10358 10371 10382 10392 10403 10406 10404 10415 10434 10442 10447 10457 10465 10472 10477 10483 10488 10495 10503 10508 10513 10521 10527 10531 10537 10544 10551 10558 10563 10564 10567 10571 10575 10580 10585 10589 10593 10596 10600 10602 10601 10599 10600 10605 10615 10626 10632 10636 10642 10646 10653 10662 10666 10669 10670 10672 10675 10679 10683 10684 10688 10695 10702 10706 10706 10706 10703 10690 10682
10234 10234 10233 10233 10234 10235 10237 10240 10244 10248 10255 10265 10275 10287 10298 10306 10315 10327 10339 10351 10362 10372 10384 10393 10393 10396 10413 10428 10432 10441 10452 10456 10464 10473 10477 10481 10489 10496 10502 10510 10517 10521 10526 10531 10540 10548 10554 10557 10558 10562 10566 10571 10578 10582 10585 10588 10591 10595 10595 10592 10591 10594 10600 10609 10619 10625 10630 10636 10642 10651 10658 10662 10664 10665 10667 10670 10675 10680 10683 10686 10690 10694 10697 10697 10696 10692 10680 10674
10228 10227 10227 10227 10229 10230 10232 10234 10238 10244 10252 10261 10270 10280 10290 10297 10308 10319 10331 10344 10352 10362 10374 10380 10381 10391 10409 10420 10427 10438 10443 10447 10460 10468 10469 10474 10483 10490 10497 10505 10511 10515 10520 10527 10537 10544 10548 10552 10555 10557 10561 10568 10575 10577 10578 10580 10584 10588 10587 10583 10584 10588 10595 10603 10611 10618 10624 10632 10640 10648 10653 10657 10659 10661 10663 10667 10672 10676 10681 10682 10681 10682 10685 10683 10681 10678 10671 10668
10223 10222 10222 10223 10224 10226 10228 10230 10235 10241 10249 10256 10265 10274 10281 10289 10300 10311 10325 10335 10342 10353 10365 10371 10377 10390 10405 10415 10424 10431 10435 10444 10456 10459 10461 10468 10478 10486 10494 10500 10504 10508 10514 10522 10530 10535 10540 10546 10548 10550 10556 10563 10567 10568 10569 10573 10578 10580 10576 10575 10578 10583 10590 10597 10606 10613 10619 10630 10639 10644 10648 10652 10655 10657 10660 10664 10667 10671 10673 10672 10672 10676 10681 10680 10677 10673 10667 10665
10219 10218 10218 10219 10220 10222 10224 10227 10232 10237 10243 10251 10260 10268 10275 10284 10294 10306 10319 10328 10335 10347 10359 10367 10375 10387 10401 10411 10418 10424 10431 10442 10450 10454 10459 10466 10474 10482 10488 10492 10497 10503 10510 10517 10524 10529 10534 10538 10540 10545 10552 10556 10558 10559 10561 10566 10571 10570 10567 10569 10574 10579 10586 10594 10602 10608 10616 10630 10637 10639 10643 10648 10651 10654 10657 10660 10662 10664 10665 10665 10668 10673 10677 10679 10676 10670 10665 10665
10215 10215 10215 10216 10217 10218 10221 10224 10228 10233 10238 10245 10254 10262 10270 10278 10288 10300 10312 10321 10331 10345 10356 10364 10373 10385 10398 10407 10412 10418 10427 10437 10445 10451 10458 10465 10472 10479 10485 10489 10495 10501 10508 10515 10521 10526 10529 10533 10537 10542 10546 10549 10551 10553 10556 10560 10564 10562 10561 10565 10570 10576 10583 10590 10597 10603 10615 10629 10632 10633 10638 10643 10647 10650 10652 10655 10656 10659 10660 10661 10665 10669 10671 10671 10668 10664 10665 10667
10213 10213 10213 10213 10214 10216 10219 10222 10225 10230 10235 10241 10249 10257 10265 10273 10284 10295 10306 10318 10329 10340 10352 10361 10370 10383 10394 10400 10405 10413 10422 10432 10441 10448 10454 10462 10470 10478 10484 10490 10495 10501 10509 10515 10520 10524 10526 10530 10534 10537 10541 10545 10547 10550 10554 10558 10561 10559 10559 10563 10569 10574 10581 10589 10596 10604 10616 10625 10625 10626 10632 10638 10644 10646 10647 10650 10652 10654 10656 10658 10662 10665 10666 10664 10661 10662 10667 10670
10212 10211 10211 10212 10213 10215 10217 10220 10223 10228 10232 10238 10245 10252 10261 10270 10279 10290 10303 10314 10323 10334 10347 10357 10367 10378 10389 10395 10401 10409 10418 10428 10435 10442 10449 10457 10465 10472 10478 10484 10490 10498 10506 10511 10516 10520 10523 10526 10531 10534 10538 10542 10545 10549 10554 10559 10561 10558 10559 10564 10568 10574 10582 10590 10597 10605 10613 10617 10617 10620 10627 10635 10640 10642 10644 10647 10648 10648 10650 10654 10658 10660 10660 10659 10659 10664 10670 10672
10211 10210 10210 10211 10212 10214 10216 10218 10221 10224 10229 10235 10242 10250 10258 10266 10275 10288 10300 10309 10319 10332 10345 10355 10364 10375 10385 10391 10397 10406 10417 10427 10434 10439 10446 10454 10462 10469 10475 10481 10487 10494 10500 10504 10508 10513 10517 10523 10530 10533 10536 10539 10543 10546 10551 10554 10554 10552 10555 10560 10565 10573 10581 10587 10592 10599 10605 10609 10610 10613 10623 10632 10637 10638 10640 10642 10643 10643 10645 10649 10652 10653 10654 10656 10659 10664 10669 10669
10210 10210 10209 10210 10212 10213 10215 10217 10219 10223 10228 10234 10241 10249 10256 10265 10275 10286 10296 10306 10319 10333 10343 10352 10361 10371 10380 10386 10393 10404 10414 10423 10430 10438 10446 10454 10461 10467 10472 10478 10484 10491 10497 10501 10505 10508 10512 10518 10524 10527 10530 10533 10537 10540 10543 10545 10546 10546 10549 10555 10565 10571 10574 10578 10585 10592 10597 10600 10602 10608 10620 10629 10631 10632 10634 10636 10637 10637 10640 10644 10646 10647 10649 10652 10657 10661 10663 10661
10210 10210 10210 10210 10212 10213 10215 10218 10220 10224 10228 10234 10241 10248 10256 10265 10275 10283 10293 10306 10319 10330 10339 10348 10357 10366 10375 10382 10392 10403 10412 10420 10427 10435 10444 10452 10457 10462 10467 10473 10480 10487 10492 10497 10502 10506 10510 10514 10517 10520 10523 10526 10530 10533 10536 10540 10542 10544 10548 10558 10566 10563 10563 10571 10580 10586 10590 10593 10598 10605 10616 10622 10623 10625 10627 10629 10632 10633 10635 10638 10640 10641 10643 10646 10651 10653 10651 10648
10211 10211 10211 10211 10212 10213 10215 10218 10222 10225 10229 10234 10240 10247 10256 10264 10272 10282 10295 10307 10318 10326 10335 10345 10355 10363 10371 10380 10392 10402 10411 10419 10426 10434 10441 10448 10454 10459 10464 10470 10476 10481 10486 10490 10495 10500 10505 10509 10511 10514 10517 10519 10523 10526 10528 10532 10536 10541 10548 10556 10556 10551 10556 10568 10575 10578 10584 10590 10596 10603 10611 10616 10617 10620 10622 10624 10627 10628 10629 10631 10633 10635 10637 10639 10642 10642 10641 10639
10212 10212 10212 10213 10214 10215 10216 10219 10223 10227 10231 10235 10240 10247 10254 10262 10273 10285 10298 10308 10317 10325 10334 10344 10353 10362 10370 10380 10390 10399 10407 10416 10425 10433 10440 10446 10451 10456 10462 10468 10473 10477 10481 10485 10489 10493 10498 10501 10504 10508 10511 10513 10517 10519 10522 10528 10534 10538 10542 10544 10543 10545 10555 10565 10569 10576 10583 10588 10594 10599 10606 10611 10613 10615 10618 10619 10621 10621 10622 10624 10626 10628 10631 10633 10634 10634 10635 10635
10214 10213 10213 10214 10216 10217 10218 10221 10224 10227 10232 10237 10243 10249 10256 10265 10277 10288 10299 10308 10316 10325 10334 10344 10352 10361 10370 10380 10388 10397 10405 10414 10422 10430 10437 10444 10448 10452 10458 10464 10469 10474 10477 10481 10485 10489 10492 10496 10499 10504 10506 10507 10511 10516 10522 10527 10531 10533 10535 10538 10541 10546 10554 10559 10564 10572 10578 10584 10590 10594 10600 10606 10608 10610 10611 10612 10612 10614 10616 10619 10621 10623 10625 10627 10628 10630 10631 10632
10216 10215 10215 10216 10218 10219 10221 10224 10227 10230 10234 10239 10246 10253 10261 10271 10281 10291 10300 10308 10316 10325 10334 10343 10351 10360 10370 10379 10387 10396 10404 10412 10419 10426 10433 10439 10444 10449 10455 10460 10465 10469 10473 10477 10481 10485 10488 10491 10495 10498 10501 10505 10513 10519 10521 10523 10526 10529 10534 10539 10542 10546 10551 10554 10559 10566 10572 10579 10585 10588 10595 10600 10600 10601 10602 10604 10606 10608 10611 10614 10616 10618 10619 10621 10623 10626 10627 10628
10219 10218 10218 10218 10220 10221 10224 10227 10231 10235 10239 10244 10250 10257 10266 10276 10285 10293 10301 10309 10318 10326 10333 10342 10350 10359 10368 10377 10387 10395 10403 10410 10417 10424 10429 10434 10439 10446 10451 10456 10461 10465 10469 10473 10477 10481 10485 10488 10491 10495 10501 10506 10511 10513 10513 10516 10521 10525 10530 10534 10536 10541 10544 10548 10555 10564 10569 10575 10579 10583 10589 10591 10591 10593 10596 10598 10600 10603 10605 10608 10610 10612 10613 10615 10618 10621 10623 10623
10223 10222 10221 10221 10222 10224 10226 10229 10233 10237 10242 10248 10253 10261 10270 10279 10287 10295 10302 10310 10318 10325 10333 10342 10351 10359 10367 10376 10385 10394 10401 10409 10416 10422 10427 10431 10437 10442 10447 10452 10456 10460 10465 10469 10473 10477 10481 10484 10488 10493 10498 10500 10502 10505 10507 10511 10516 10519 10523 10527 10529 10533 10538 10544 10552 10558 10562 10568 10573 10578 10582 10584 10585 10587 10590 10592 10595 10597 10599 10601 10603 10605 10607 10610 10613 10616 10617 10616
10227 10226 10226 10226 10227 10228 10230 10233 10237 10241 10246 10252 10258 10266 10275 10283 10289 10296 10304 10311 10318 10326 10334 10343 10351 10360 10369 10377 10385 10392 10400 10407 10413 10419 10424 10429 10434 10438 10442 10447 10451 10456 10461 10465 10469 10474 10477 10480 10485 10489 10491 10493 10497 10501 10502 10505 10510 10516 10521 10525 10527 10532 10537 10541 10545 10549 10553 10560 10567 10571 10575 10578 10579 10581 10584 10586 10589 10591 10593 10595 10596 10599 10601 10605 10607 10609 10610 10610
10230 10231 10231 10232 10233 10234 10237 10239 10243 10247 10251 10257 10264 10272 10280 10286 10292 10299 10306 10314 10321 10329 10337 10345 10353 10361 10370 10378 10385 10391 10397 10404 10411 10416 10421 10425 10430 10434 10438 10443 10447 10453 10458 10461 10466 10470 10473 10477 10480 10484 10487 10490 10495 10497 10499 10504 10512 10517 10521 10524 10526 10530 10532 10535 10538 10542 10548 10556 10561 10565 10569 10572 10572 10574 10578 10580 10582 10584 10586 10588 10590 10592 10596 10599 10600 10602 10603 10603
10231 10233 10236 10237 10238 10241 10243 10246 10249 10253 10258 10265 10272 10278 10284 10290 10297 10305 10312 10320 10327 10334 10341 10349 10356 10363 10371 10378 10385 10390 10396 10402 10408 10413 10417 10421 10425 10430 10435 10440 10444 10449 10453 10455 10460 10464 10468 10471 10475 10480 10484 10488 10492 10496 10500 10506 10511 10514 10518 10521 10523 10525 10528 10531 10534 10539 10546 10553 10557 10561 10565 10567 10568 10569 10572 10573 10575 10577 10579 10581 10584 10587 10590 10592 10593 10594 10595 10595
10235 10235 10238 10241 10244 10246 10249 10252 10256 10261 10266 10272 10278 10283 10289 10295 10303 10311 10318 10324 10330 10336 10343 10350 10357 10365 10372 10378 10384 10390 10395 10400 10403 10407 10411 10416 10422 10429 10434 10438 10442 10446 10449 10452 10457 10461 10464 10467 10471 10476 10479 10483 10487 10492 10496 10500 10504 10509 10512 10515 10518 10521 10524 10527 10530 10537 10544 10548 10551 10556 10561 10563 10563 10564 10565 10566 10568 10570 10573 10575 10578 10581 10583 10585 10586 10586 10587 10587
10242 10240 10241 10244 10247 10251 10254 10258 10263 10268 10274 10279 10285 10290 10297 10304 10310 10316 10321 10326 10332 10337 10344 10351 10358 10365 10371 10377 10383 10388 10392 10395 10398 10402 10407 10413 10420 10426 10432 10437 10440 10443 10446 10450 10455 10459 10462 10465 10468 10472 10476 10479 10483 10488 10491 10494 10499 10503 10506 10509 10511 10514 10518 10522 10528 10534 10538 10540 10546 10552 10555 10557 10558 10557 10558 10560 10562 10564 10567 10569 10572 10575 10576 10577 10578 10579 10579 10581
10247 10247 10247 10248 10251 10255 10259 10263 10268 10274 10280 10287 10292 10298 10303 10309 10314 10319 10324 10329 10334 10340 10345 10351 10357 10363 10370 10376 10381 10386 10389 10391 10395 10401 10408 10415 10420 10425 10429 10433 10437 10440 10444 10448 10453 10457 10460 10462 10465 10469 10473 10477 10480 10483 10486 10490 10494 10498 10500 10503 10506 10509 10513 10518 10523 10527 10530 10534 10540 10544 10547 10550 10550 10549 10551 10553 10556 10558 10561 10564 10567 10568 10569 10570 10570 10571 10572 10574
10251 10251 10253 10255 10258 10262 10266 10270 10275 10280 10286 10291 10297 10301 10306 10311 10316 10321 10325 10330 10335 10341 10346 10351 10357 10363 10369 10375 10379 10383 10386 10389 10395 10402 10409 10415 10419 10423 10427 10430 10434 10438 10442 10446 10450 10454 10456 10458 10461 10466 10469 10472 10476 10479 10482 10485 10489 10493 10496 10498 10501 10504 10508 10512 10516 10520 10524 10529 10533 10536 10539 10542 10543 10544 10546 10548 10550 10553 10556 10558 10560 10561 10562 10562 10562 10564 10566 10567
10258 10256 10256 10259 10263 10268 10273 10278 10282 10286 10291 10295 10300 10305 10310 10314 10318 10322 10327 10331 10336 10341 10346 10351 10357 10363 10369 10373 10376 10380 10384 10389 10396 10402 10407 10412 10416 10420 10424 10428 10431 10434 10438 10441 10445 10450 10452 10454 10457 10461 10464 10467 10472 10475 10478 10481 10484 10487 10491 10493 10496 10499 10502 10506 10510 10514 10520 10524 10527 10529 10533 10537 10538 10538 10539 10541 10544 10546 10549 10551 10552 10552 10553 10554 10555 10557 10559 10561
10267 10265 10263 10263 10265 10270 10277 10284 10289 10293 10296 10300 10303 10308 10312 10316 10320 10324 10328 10332 10337 10342 10347 10352 10357 10362 10367 10371 10375 10379 10384 10390 10395 10400 10405 10409 10413 10417 10421 10424 10426 10430 10433 10437 10441 10445 10447 10450 10453 10455 10459 10463 10468 10471 10473 10475 10478 10481 10485 10488 10491 10494 10497 10501 10505 10509 10514 10517 10519 10523 10528 10530 10530 10530 10531 10534 10537 10540 10542 10543 10543 10544 10545 10547 10549 10552 10553 10555
10274 10273 10272 10271 10271 10273 10277 10282 10289 10295 10300 10304 10307 10310 10314 10317 10321 10325 10330 10334 10338 10343 10348 10354 10359 10363 10366 10370 10375 10380 10385 10390 10394 10398 10402 10406 10410 10414 10417 10420 10423 10426 10429 10432 10436 10440 10442 10445 10447 10450 10453 10458 10462 10465 10468 10470 10472 10476 10481 10484 10487 10489 10492 10496 10499 10502 10506 10509 10513 10518 10521 10521 10521 10523 10524 10527 10530 10533 10534 10535 10535 10536 10538 10541 10544 10546 10547 10549